Date String (YYYY-MM-DD hh:mm:ss) UTC,Instrument flags,Ambient pressure (hPa),Sample flow (lpm),Bypass flow (lpm),Sample temperature (°C),Ambient temperature (°C),ASC tube jacket temperature (°C),LED temperature (°C),Box temperature (°C),Sample RH (%),Span deviation,Mass concentration (μg/m³),Mass concentration (μg/m³),Mass concentration (μg/m³)
DateTimeUTC,F1_M11,P_M11,Q1_M11,Q2_M11,T1_M11,T2_M11,T3_M11,T4_M11,T5_M11,U1_M11,ZSPAN_M11,X0_M11,X2_M11,X1_M11
2022-11-23 08:00:00,,0823.3,5.02,0.00,22.7,21.2,00.0,31.7,24.3,08.1,0000.0,0008.94,0003.46,0003.01
2022-11-23 08:01:00,,0823.3,5.00,0.00,22.7,21.2,00.0,31.7,24.3,08.1,0000.0,0008.68,0003.37,0002.91
2022-11-23 08:02:00,,0823.3,4.98,0.00,22.7,21.2,00.0,31.7,24.4,08.0,0000.0,0008.66,0003.33,0002.83
2022-11-23 08:03:00,,0823.4,5.00,0.00,22.7,21.2,00.0,31.7,24.4,08.0,0000.0,0008.25,0003.31,0002.74
2022-11-23 08:04:00,,0823.4,5.00,0.00,22.7,21.2,00.0,31.7,24.3,07.9,0000.0,0007.73,0003.24,0002.63
2022-11-23 08:05:00,,0823.2,5.01,0.00,22.7,21.2,00.0,31.7,24.4,07.9,0000.0,0007.53,0003.18,0002.55
2022-11-23 08:06:00,,0823.2,5.01,0.00,22.7,21.2,00.0,31.7,24.5,07.9,0000.0,0007.43,0003.13,0002.46
2022-11-23 08:07:00,,0823.3,4.99,0.00,22.7,21.2,00.0,31.7,24.5,07.8,0000.0,0007.37,0003.08,0002.39
2022-11-23 08:08:00,,0823.2,5.00,0.00,22.7,21.3,00.0,31.7,24.5,07.8,0000.0,0007.68,0003.10,0002.38
2022-11-23 08:09:00,,0823.2,5.00,0.00,22.7,21.3,00.0,31.7,24.4,07.8,0000.0,0007.78,0003.10,0002.37
2022-11-23 08:10:00,,0823.2,5.00,0.00,22.7,21.3,00.0,31.7,24.5,07.7,0000.0,0007.97,0003.10,0002.39
2022-11-23 08:11:00,,0823.3,5.00,0.00,22.7,21.3,00.0,31.7,24.5,07.7,0000.0,0007.89,0003.13,0002.44
2022-11-23 08:12:00,,0823.2,5.00,0.00,22.7,21.3,00.0,31.7,24.4,07.7,0000.0,0008.01,0003.20,0002.51
2022-11-23 08:13:00,,0823.3,5.00,0.00,22.7,21.3,00.0,31.7,24.5,08.2,0000.0,0007.31,0003.23,0002.53
2022-11-23 08:14:00,,0823.2,5.00,0.00,22.7,21.3,00.0,31.7,24.5,08.0,0000.0,0007.02,0003.23,0002.54
2022-11-23 08:15:00,,0823.2,5.00,0.00,22.7,21.3,00.0,31.6,24.6,07.9,0000.0,0007.23,0003.30,0002.59
2022-11-23 08:16:00,,0823.2,5.00,0.00,22.7,21.3,00.0,31.6,24.5,07.7,0000.0,0007.27,0003.33,0002.63
2022-11-23 08:17:00,,0823.2,5.00,0.00,22.7,21.3,00.0,31.6,24.4,07.6,0000.0,0007.62,0003.33,0002.68
2022-11-23 08:18:00,,0823.1,5.00,0.00,22.7,21.3,00.0,31.6,24.5,07.6,0000.0,0007.73,0003.33,0002.73
2022-11-23 08:19:00,,0823.0,5.01,0.00,22.7,21.3,00.0,31.6,24.6,07.6,0000.0,0007.73,0003.30,0002.73
2022-11-23 08:20:00,,0823.0,5.00,0.00,22.7,21.3,00.0,31.6,24.6,07.6,0000.0,0007.57,0003.28,0002.73
2022-11-23 08:21:00,,0823.0,5.00,0.00,22.7,21.1,00.0,31.7,24.6,07.6,0000.0,0007.18,0003.29,0002.74
2022-11-23 08:22:00,,0823.2,4.99,0.00,22.7,21.0,00.0,31.6,24.5,07.6,0000.0,0007.16,0003.29,0002.72
2022-11-23 08:23:00,,0823.0,5.01,0.00,22.6,20.9,00.0,31.6,24.4,07.6,0000.0,0007.25,0003.30,0002.71
2022-11-23 08:24:00,,0823.0,5.01,0.00,22.6,20.8,00.0,31.6,24.4,07.7,0000.0,0008.93,0003.32,0002.76
2022-11-23 08:25:00,,0823.0,4.99,0.00,22.6,20.7,00.0,31.6,24.4,07.7,0000.0,0009.35,0003.35,0002.81
2022-11-23 08:26:00,,0823.0,4.99,0.00,22.6,20.7,00.0,31.6,24.4,07.8,0000.0,0009.51,0003.35,0002.85
2022-11-23 08:27:00,,0822.9,5.01,0.00,22.5,20.8,00.0,31.6,24.3,07.9,0000.0,0010.00,0003.37,0002.87
2022-11-23 08:28:00,,0822.9,5.00,0.00,22.5,20.9,00.0,31.5,24.3,07.9,0000.0,0009.72,0003.44,0002.90
2022-11-23 08:29:00,,0822.9,4.98,0.00,22.5,21.0,00.0,31.5,24.4,07.9,0000.0,0009.75,0003.46,0002.91
2022-11-23 08:30:00,,0822.8,5.02,0.00,22.5,21.0,00.0,31.5,24.4,07.9,0000.0,0009.63,0003.49,0002.91
2022-11-23 08:31:00,,0822.8,4.99,0.00,22.5,21.1,00.0,31.5,24.4,07.9,0000.0,0009.87,0003.52,0002.95
2022-11-23 08:32:00,,0822.9,4.99,0.00,22.5,21.1,00.0,31.5,24.2,07.9,0000.0,0009.90,0003.53,0002.96
2022-11-23 08:33:00,,0823.0,5.02,0.00,22.5,21.1,00.0,31.5,24.2,08.0,0000.0,0009.91,0003.55,0002.99
2022-11-23 08:34:00,,0823.0,5.00,0.00,22.5,21.1,00.0,31.5,24.2,08.1,0000.0,0009.90,0003.54,0003.00
2022-11-23 08:35:00,,0822.8,4.98,0.00,22.5,21.0,00.0,31.5,24.2,08.0,0000.0,0008.53,0003.55,0003.02
2022-11-23 08:36:00,,0822.7,5.00,0.00,22.5,21.0,00.0,31.5,24.3,08.0,0000.0,0008.89,0003.56,0003.03
2022-11-23 08:37:00,,0822.8,5.02,0.00,22.5,21.1,00.0,31.5,24.3,07.9,0000.0,0008.84,0003.57,0003.06
2022-11-23 08:38:00,,0822.8,5.00,0.00,22.5,21.0,00.0,31.5,24.2,08.0,0000.0,0008.60,0003.60,0003.09
2022-11-23 08:39:00,,0822.7,4.99,0.00,22.5,21.0,00.0,31.5,24.2,08.0,0000.0,0009.42,0003.59,0003.09
2022-11-23 08:40:00,,0822.6,5.00,0.00,22.5,21.1,00.0,31.5,24.2,08.0,0000.0,0009.50,0003.58,0003.09
2022-11-23 08:41:00,,0822.6,5.00,0.00,22.5,21.1,00.0,31.4,24.2,07.9,0000.0,0009.23,0003.60,0003.11
2022-11-23 08:42:00,,0822.7,5.00,0.00,22.5,21.1,00.0,31.4,24.2,07.9,0000.0,0009.27,0003.61,0003.11
2022-11-23 08:43:00,,0822.7,5.00,0.00,22.5,21.1,00.0,31.4,24.2,07.9,0000.0,0009.49,0003.63,0003.12
2022-11-23 08:44:00,,0822.8,5.00,0.00,22.5,21.0,00.0,31.4,24.2,08.0,0000.0,0009.62,0003.64,0003.12
2022-11-23 08:45:00,,0822.8,5.01,0.00,22.5,21.0,00.0,31.4,24.2,08.0,0000.0,0010.28,0003.66,0003.14
2022-11-23 08:46:00,,0822.7,5.01,0.00,22.4,21.0,00.0,31.4,24.0,07.9,0000.0,0010.56,0003.65,0003.14
2022-11-23 08:47:00,,0822.6,4.99,0.00,22.4,21.0,00.0,31.4,24.0,07.9,0000.0,0009.73,0003.60,0003.13
2022-11-23 08:48:00,,0822.7,5.00,0.00,22.4,21.0,00.0,31.4,24.0,07.9,0000.0,0010.01,0003.58,0003.12
2022-11-23 08:49:00,,0822.6,5.01,0.00,22.4,21.0,00.0,31.4,24.1,07.9,0000.0,0010.00,0003.55,0003.11
2022-11-23 08:50:00,,0822.6,5.01,0.00,22.4,20.9,00.0,31.4,24.0,07.9,0000.0,0009.35,0003.52,0003.09
2022-11-23 08:51:00,,0822.6,5.00,0.00,22.4,20.9,00.0,31.4,24.0,07.9,0000.0,0009.14,0003.51,0003.08
2022-11-23 08:52:00,,0822.6,4.99,0.00,22.4,20.9,00.0,31.4,24.1,07.9,0000.0,0009.17,0003.50,0003.05
2022-11-23 08:53:00,,0822.6,5.00,0.00,22.4,20.8,00.0,31.4,24.1,07.9,0000.0,0009.23,0003.52,0003.04
2022-11-23 08:54:00,,0822.7,5.01,0.00,22.3,20.8,00.0,31.4,24.1,07.9,0000.0,0009.45,0003.51,0003.04
2022-11-23 08:55:00,,0822.7,5.00,0.00,22.3,20.8,00.0,31.3,24.0,07.9,0000.0,0009.67,0003.53,0003.04
2022-11-23 08:56:00,,0822.6,4.98,0.00,22.3,20.8,00.0,31.3,24.0,07.9,0000.0,0009.02,0003.50,0003.01
2022-11-23 08:57:00,,0822.6,5.01,0.00,22.3,20.8,00.0,31.3,24.1,07.8,0000.0,0008.62,0003.48,0003.02
2022-11-23 08:58:00,,0822.6,5.00,0.00,22.3,20.8,00.0,31.3,24.1,07.8,0000.0,0009.09,0003.51,0003.02
2022-11-23 08:59:00,,0822.6,5.00,0.00,22.3,20.8,00.0,31.3,24.0,07.8,0000.0,0008.39,0003.53,0003.02
